FREGAT DEB, 49271

Orbit data source: Space-Track

FREGAT DEB, 49271 is space debris in LEO originally from a launch on Mon, 18 Jul 2011 UTC launched from the Tyuratam Missile And Space Complex (TTMTR). Debris objects in space refer to the collection of defunct objects orbiting the Earth. Examples of debris include non-operational satellites, rocket bodies, and fragments generated from explosions, collisions, or faulty payload assembly.

Loading next visibility...
Identifier
49271, 2011-037PF
Orbit
LEO
Country
Flag of CISCIS
Related business
Manufacturer
Lavochkin
Mission
Spacecraft
Bus & Motor
Unknown
Mass
Unknown
Launch date (UTC)
2011-07-18 (14 years ago)
Launch vehicle
Unknown
Launch site
Tyuratam Missile And Space Complex (TTMTR)
Object type
Payload
Rocket body
Debris
Shape & HBR
Unknown shape, 0.1 m
Radar Cross Section
Small (<0.1 m²)

Expand to show TLE details & history
Last TLE update: 1 day ago

TLE from 1 day ago
0 FREGAT DEB
1 49271U 11037PF  25286.55726870  .00003544  00000-0  70454-2 0  9996
2 49271  51.6242  17.3959 0912679  93.4635 277.0907 12.33727154194509
Epoch: 2025-10-13T13:22Z
TLE epoch observation values (Epoch: 2025-10-13T13:22:28.015Z)
Latitude
-0.00009°
Longitude
154.42076°
Altitude
1,510.463 km
Speed
7.121 km/s
True Right ascension
01h 09m 34s
True Declination
0° 00' 00"
Sunlit
Object was in full shadow at epoch
Visualization orbit readout
Latitude
Unknown
Longitude
Unknown
Altitude
Unknown
Speed
Unknown
Apparent Right ascension
Unknown
Apparent Declination
Unknown
Sunlit
N/A
Visualization observer readout
Local Sidereal Time
08:11:57
Azimuth
Unknown
Elevation
Unknown
Doppler factor
Unknown
Orbital elements
Apogee altitude
2,255.854 km
Perigee altitude
811.651 km
Semi-major axis
7,911.889 km
Eccentricity
0.09127
Inclination
51.6242°
RAAN
17.3959°
Arg. of periapsis
93.4635°
True anomaly
266.62263°
Mean anomaly
277.0907°
Eccentric anomaly
271.8642°
Mean motion
3.08406 °/min
Orbital period
116.73 mins
BSTAR
0.0070454
Loading maneuver chart data...
Computing Atmospheric mass density...
Loading historical data...
Loading historical data...
Loading historical data...
Loading historical data...
Loading historical data...
Loading historical data...
Loading historical data...

Documentation

Showing up to 5 results
|